カタログに戻る

CZ-6A DEB

運用中PO
NORAD 54632·DEBRIS·🇨🇳 China

打ち上げ Nov 11, 2022 から Taiyuan Satellite Launch Center

Loading…

次のパス (今後24時間)

TLE

最新Source: Space-Track

元期: Sep 13, 2026, 16:19 UTC

1 54632U 22151PJ  26256.68042827  .00015635  00000-0  17604-2 0  9999
2 54632  98.6439 335.2327 0046018 357.2037   2.8912 14.85972598202512

AllMySatでCZ-6A DEBをリアルタイム追跡

Download on the App Store